Regional Weather Roundup
Issued by NWS

Home | Current Version | Previous Version | Text Only | Print | Product List | Glossary On
Versions: 1 2 3 4 5 6 7 8 9 10 11 12 13 14 15 16 17 18 19 20 21 22 23 24 25 26 27 28 29 30 31 32 33 34 35 36 37 38 39 40 41 42 43 44 45 46 47 48 49 50
000
ASUS43 KBIS 310120
RWRND

NORTH DAKOTA REGIONAL WEATHER ROUNDUP
NATIONAL WEATHER SERVICE BISMARCK ND
700 PM CST FRI JAN 30 2015

NOTE: "FAIR" INDICATES FEW OR NO CLOUDS BELOW 12,000 FEET WITH NO
SIGNIFICANT WEATHER AND/OR OBSTRUCTIONS TO VISIBILITY.


NDZ001>003-009>011-017-310200-
NORTHWEST NORTH DAKOTA

CITY           SKY/WX    TMP DP  RH WIND       PRES   REMARKS
WILLISTON      CLEAR     32  26  78 N13       30.20R
MINOT          CLOUDY    24  20  84 NW16      30.20R WCI  11
MINOT AFB      CLOUDY    24  24  99 NW13      30.20R WCI  13
$$

NDZ018>021-031>035-040>046-310200-
SOUTHWEST NORTH DAKOTA

CITY           SKY/WX    TMP DP  RH WIND       PRES   REMARKS
BISMARCK       CLEAR     34  27  75 NW5       30.17R
DICKINSON      CLEAR     34  24  67 N7        30.14R
GARRISON         N/A     30  26  85 N9        30.17R
HETTINGER ARPT CLEAR     33  24  69 N7        30.16R
$$

NDZ004>008-012>016-024-026-027-054-310200-
NORTHEAST NORTH DAKOTA

CITY           SKY/WX    TMP DP  RH WIND       PRES   REMARKS
GRAND FORKS    CLOUDY    30  23  75 NW7       30.13R
GRND FRKS AFB  CLOUDY    30  22  73 NW10      30.14R
DEVILS LAKE    CLOUDY    25  19  80 N14G25    30.16R WCI  13
$$

NDZ022-023-025-028>030-036>039-047>053-310200-
SOUTHEAST NORTH DAKOTA

CITY           SKY/WX    TMP DP  RH WIND       PRES   REMARKS
FARGO          CLEAR     28  23  81 S7        30.12S
JAMESTOWN      PTCLDY    30  26  85 NW7       30.13R
$$




USA.gov is the U.S. government's official web portal to all federal, state and local government web resources and services.